BSAT-3A

Last updated on Thu Nov 21 2024 00:02:41 GMT+0000 (Coordinated Universal Time)

1 32019U 07036B 24325.55958378 -.00000349 00000+0 00000+0 0 9992 2 32019 0.0284 212.7661 0004739 23.4764 135.1250 1.00269470 44773
UTC large
Height (km)
Speed (km/s)
/
Latitude / Longitude
Inclination (degrees)
Orbital Period (minutes)
Azimuth
Elevation
Range (km)
Doppler Factor

Next 0 passes for location: London (51.5072 / 0.1276)

Sorry there are no passes over London.